sat.trackr.live / text

‹ back to catalog

YINHE-1

NORAD 45024 · 2020-004A

PAYLOAD ACTIVE UNKNOWN

§ Identity

Operator
Country
PRC
Launch date
2020-01-16
Launch site
JSC
Launch vehicle
Mass (kg)
RCS (m²)

External: N2YO · Heavens-Above · Gunter

§ Orbital elements

Epoch: 2026-09-13T05:10:56.372736Z

Period
97.35 min
Inclination
86.3871°
Eccentricity
0.0015603
Mean motion
14.79215307 rev/d
Perigee alt
620.9 km
Apogee alt
642.7 km
Semi-major
7,009.9 km
B*
6.5746e-5
RAAN
75.9405°
Arg perigee
56.9085°
Mean anomaly
303.3631°
Rev number
35,893

§ Raw data

YINHE-11 45024U 20004A   26256.21593024  .00000516  00000+0  65746-4 0  99912 45024  86.3871  75.9405 0015603  56.9085 303.3631 14.79215307358934

JSON: /api/v1/satellites/45024 · /tle

For live sub-satellite position, see the globe view (requires WebGL).

§ Visibility from observer

Set your observer location to see the next 7 days of passes ≥ 10°. The values pass through the URL so the page stays shareable.

No JS? Fill the form by hand. The geolocation button needs JavaScript.